SCP
0 0 0 0 0 0 0 0 0 0 0 0 0 0 0 0 0 0 0 0 0 0 0 0 0 0 0 0 0 0 0 0 0 0 0 0 0 0 0 0 0 0 0
0 0 0 0 0 0 0 0 0 0 0 0 0 0 0 0 0 0 0 0 0 0 0 0 0 0 0 0 0 0 0 0 0 0 0 0 0 0 0 0 0 0 0
0 0 0 0 0 0 0 0 0 0 0 0 0 0 0 0 0 0 0 0 0 0 0 0 0 0 0 0 0 0 0 0 0 0 0 0 0 0 0 0 0 0 0
0 0 0 0 0 0 0 0 0 0 0 0 0 0 0 0 0 0 0 0 0 0 0 0 0 0 0 0 0 0 0 0 0 0 0 0 0 0 0 0 0 0 0
0 0 0 0 0 0 0 0 0 0 0 0 0 0 0 0 0 0 0 0 0 0 0 0 0 0 0 0 0 0 0 0 0 0 0 0 0 0 0 0 0 0 0
0 0 0 0 0 0 0 0 0 0 0 0 0 0 0 0 0 0 0 0 0 0 0 0 0 0 0 0 0 0 0 0 0 0 0 0 0 0 0 0 0 0 0
0 0 0 0 0 0 0 0 0 0 0 0 0 0 0 0 0 0 0 0 0 0 0 0 0 0 0 0 0 0 0 0 0 0 0 0 0 0 0 0 0 0 0
0 0 0 0 0 0 0 0 0 0 0 0 0 0 0 0 0 0 0 0 0 0 0 0 0 0 0 0 0 0 0 0 0 0 0 0 0 0 0 0 0 0 0
0 0 0 0 0 0 0 0 0 0 0 0 0 0 0 0 0 0 0 0 0 0 0 0 0 0 0 0 0 0 0 0 0 0 0 0 0 0 0 0 0 0 0
0 0 0 0 0 0 0 0 0 0 0 0 0 0 0 0 0 0 0 0 0 0 0 0 0 0 0 0 0 0 0 0 0 0 0 0 0 0 0 0 0 0 0
0 0 0 0 0 0 0 0 0 0 0 0 0 0 0 0 0 0 0 0 0 0 0 0 0 0 0 0 0 0 0 0 0 0 0 0 0 0 0 0 0 0 0
0 0 0 0 0 0 0 0 0 0 0 0 0 0 0 0 0 0 0 0 0 0 0 0 0 0 0 0 0 0 0 0 0 0 0 0 0 0 0 0 0 0 0
0 0 0 0 0 0 0 0 0 0 0 0 0 0 0 0 0 0 0 0 0 0 0 0 0 0 0 0 0 0 0 0 0 0 0 0 0 0 0 0 0 0 0
0 0 0 -0 0 0 0 0 0 0 0 0 0 0 0 0 0 0 0 0 0 0 0 0 0 0 0 0 0 0 0 0 0 0 0 0 0 0 0 0 0 0 0
0 -0 -0 -0 0 0 0 0 0 0 0 0 0 0 0 0 0 0 0 0 0 0 0 0 0 0 0 0 0 0 0 0 0 0 0 0 0 0 0 0 0 0 0
0 0 0 0 0 0 0 0 0 0 0 0 0 0 0 0 0 0 0 0 0 0 0 0 0 0 0 0 0 0 0 0 0 0 0 0 0 0 0 0 0 0 0
0 0 0 0 0 0 0 0 0 0 0 0 0 0 0 0 0 0 0 0 0 0 0 0 0 0 0 0 0 0 0 0 0 0 0 0 0 0 0 0 0 0 0
0 0 0 0 0 0 0 0 0 0 0 0 0 0 0 0 0 0 0 0 0 0 0 0 0 0 0 0 0 0 0 0 0 0 0 0 0 0 0 0 0 0 0
0 0 0 0 0 0 0 0 0 0 0 0 0 0 0 0 0 0 0 0 0 0 0 0 0 0 0 0 0 0 0 0 0 0 0 0 0 0 0 0 0 0 0
0 0 0 0 0 0 0 0 0 0 0 0 0 0 0 0 0 0 0 0 0 0 0 0 0 0 0 0 0 0 0 0 0 0 0 0 0 0 0 0 0 0 0
0 0 0 0 0 0 0 0 0 0 0 0 0 0 0 0 0 0 0 0 0 0 0 0 0 0 0 0 0 0 0 0 0 0 0 0 0 0 0 0 0 0 0
0 0 0 0 0 0 0 0 0 0 0 0 0 0 0 0 0 0 0 0 0 0 0 0 0 0 0 0 0 0 0 0 0 0 0 0 0 0 0 0 0 0 0
0 0 0 0 0 0 0 0 0 0 0 0 0 0 0 0 0 0 0 0 0 0 0 0 0 0 0 0 0 0 0 0 0 0 0 0 0 0 0 0 0 0 0
0 0 0 0 0 0 0 0 0 0 0 0 0 0 0 0 0 0 0 0 0 0 0 0 0 0 0 0 0 0 0 0 0 0 0 0 0 0 0 0 0 0 0
0 0 0 0 0 0 0 0 0 0 0 0 0 0 0 0 0 0 0 0 0 0 0 0 0 0 0 0 0 0 0 0 0 0 0 0 0 0 0 0 0 0 0
0 0 0 0 0 0 0 0 0 0 0 0 0 0 0 0 0 0 0 0 0 0 0 0 0 0 0 0 0 0 0 0 0 0 0 0 0 0 0 0 0 0 0
Wind_Speed_500mb
52 47 53 63 67 69 74 77 78 78 78 79 79 78 81 75 77 84 75 76 78 69 73 69 65 65 58 70 59 49 41 44 50 49 40 36 34 32 30 26 22 18 14
54 53 52 60 68 73 76 79 83 81 80 81 78 75 77 77 76 81 77 73 82 78 76 78 70 72 68 78 68 62 53 51 58 55 43 28 29 36 34 30 26 21 17
60 51 56 65 69 71 75 80 83 85 82 80 77 73 76 80 78 79 79 80 84 83 81 79 77 74 77 76 78 62 60 59 63 66 31 21 20 37 38 34 30 27 24
47 46 52 60 71 76 76 80 81 83 84 83 82 84 86 82 79 78 78 82 83 83 82 82 77 72 75 78 65 66 63 63 70 73 63 36 30 23 21 38 37 34 28
37 36 39 50 62 61 68 72 76 81 84 85 84 87 87 82 79 78 78 82 84 82 83 77 81 83 96 82 92 80 72 69 72 78 75 56 37 28 20 24 41 41 35
16 23 29 38 44 47 52 60 70 75 80 84 86 91 87 83 81 81 83 82 85 84 86 84 85 91 99 98 83 72 74 72 77 76 76 73 55 43 31 25 31 34 34
16 17 21 24 27 31 38 49 58 68 74 80 83 87 86 80 82 82 82 82 88 89 85 85 78 77 79 75 72 72 74 79 80 77 78 65 58 48 42 37 33 29 29
34 36 31 28 27 30 32 36 43 53 63 70 77 82 82 82 81 80 80 76 84 83 82 84 82 82 78 81 74 75 79 81 82 79 73 65 55 49 42 43 36 29 25
37 41 32 38 40 35 32 30 33 38 46 55 63 71 77 81 86 84 81 79 76 77 84 85 84 83 85 80 77 80 83 80 82 79 70 63 56 49 43 39 34 28 21
24 31 28 30 34 29 24 24 26 29 34 42 50 58 66 74 80 80 82 81 77 76 82 77 81 86 86 82 83 84 83 79 80 77 69 62 55 50 44 36 31 22 12
20 12 23 35 30 24 21 22 25 25 28 34 39 47 59 67 75 80 84 78 78 76 75 73 81 84 83 84 86 85 80 80 80 76 68 61 56 50 44 36 26 16 15
19 16 14 21 22 24 23 23 22 25 31 34 37 43 51 60 69 79 82 78 79 78 79 76 80 82 84 86 87 85 82 82 82 76 69 63 58 51 44 33 19 18 19
21 21 18 21 26 28 28 28 30 36 39 43 43 44 48 56 61 70 77 79 81 80 83 80 84 83 85 88 87 83 84 84 80 76 71 67 61 54 43 23 22 21 21
33 43 46 52 43 39 43 49 57 51 48 51 57 56 55 56 59 65 73 78 80 80 83 82 82 82 83 89 87 85 85 82 80 76 71 66 60 52 32 24 28 25 23
67 63 57 54 59 65 67 62 66 62 62 61 68 64 66 63 63 66 73 78 76 78 78 81 83 82 84 89 87 85 85 86 83 77 70 66 61 46 27 31 31 26 34
67 73 68 60 68 71 73 72 62 63 67 70 67 66 69 70 69 70 74 76 75 78 80 82 82 80 84 89 89 88 90 89 84 80 73 68 60 44 30 35 31 32 38
67 73 70 64 61 66 73 79 74 67 71 70 69 69 73 74 73 72 71 73 77 75 79 80 81 80 84 89 92 92 91 90 85 79 78 72 59 35 28 38 35 46 42
77 77 70 69 57 50 58 59 57 58 60 60 63 65 71 75 74 74 71 72 77 74 78 80 80 77 80 86 91 92 88 85 82 79 76 69 54 29 37 45 45 50 47
75 62 61 63 57 50 43 45 46 50 54 55 56 57 60 65 69 72 71 71 75 76 76 81 80 78 79 84 91 90 87 85 81 77 72 67 53 40 57 49 54 58 60
47 46 42 43 50 58 62 61 58 58 57 56 55 53 52 55 60 62 65 66 68 71 74 77 79 78 79 82 89 83 83 84 78 73 71 69 59 66 62 55 54 53 55
53 50 50 45 42 43 46 48 50 50 50 48 46 43 42 42 43 46 51 54 58 63 69 70 70 70 68 72 68 69 78 78 76 74 76 68 67 69 63 55 51 53 47
45 48 49 47 46 45 45 45 47 46 42 39 36 34 32 31 31 34 39 42 48 52 56 56 56 57 56 54 58 66 69 71 72 73 73 69 66 71 59 55 53 51 54
49 51 53 51 47 44 43 44 42 38 34 29 26 22 20 21 22 26 28 33 37 40 45 46 43 39 42 49 57 60 64 67 71 73 67 68 69 62 58 49 48 51 51
52 48 48 48 46 41 39 34 29 23 20 17 14 12 12 13 15 18 19 23 28 30 33 32 31 38 44 54 60 61 60 63 69 68 74 80 70 63 57 51 51 49 53
49 41 46 44 42 36 31 23 14 9 9 9 9 11 14 16 16 14 13 16 17 17 18 20 23 30 39 48 54 59 63 66 70 75 76 68 65 64 59 55 54 50 51
45 39 37 37 33 27 20 18 18 16 17 19 15 16 20 22 24 23 20 16 11 10 12 10 11 17 25 33 43 55 59 66 71 68 63 64 66 64 62 60 57 55 55
Wind_Direction_500mb
250 243 233 240 236 234 233 232 233 235 232 232 232 233 237 239 235 236 238 230 228 230 233 238 240 240 242 219 219 219 227 229 212 197 187 188 192 198 199 197 195 194 192
252 242 232 232 240 238 237 235 236 236 234 234 235 235 240 243 240 240 241 234 226 226 234 235 238 237 234 223 218 214 215 224 219 203 188 188 202 209 209 207 204 204 208
253 245 234 239 240 238 239 240 239 238 236 235 235 235 238 242 242 240 237 233 228 228 231 233 234 240 243 229 225 220 231 232 214 210 193 183 209 211 216 215 212 213 219
255 249 239 241 249 247 243 242 239 239 239 237 235 238 243 245 248 246 241 235 230 229 231 229 231 235 226 230 239 232 237 239 223 209 205 204 199 178 191 220 219 220 223
260 251 244 235 246 250 245 243 240 238 237 237 237 239 242 244 246 245 243 236 231 231 229 227 228 232 231 232 239 230 228 236 226 223 215 208 209 203 205 203 215 219 223
261 248 242 240 243 244 242 240 240 240 238 238 238 239 242 241 242 242 242 236 230 231 227 225 231 235 233 236 234 230 233 234 225 223 224 222 222 223 209 213 221 214 222
266 254 256 250 246 244 243 241 239 238 238 238 239 240 240 240 243 245 244 239 231 232 223 225 224 225 227 229 238 236 230 230 226 226 226 225 226 236 225 226 206 193 221
274 270 258 247 240 244 245 244 242 240 240 240 242 242 240 240 240 242 246 243 237 234 228 226 229 232 235 231 233 233 235 230 225 226 226 226 233 234 230 226 218 191 208
274 272 261 246 246 243 241 243 247 247 246 246 246 247 243 241 242 243 244 246 238 235 228 229 231 228 230 232 235 235 235 230 226 225 224 229 233 227 225 220 215 216 199
296 261 247 235 240 237 235 239 246 252 255 256 255 254 250 246 242 244 241 241 237 234 231 230 229 231 230 232 232 232 233 230 224 221 224 226 222 220 215 211 206 205 254
312 280 236 243 234 227 228 240 247 255 262 266 265 258 252 249 244 241 241 241 238 238 231 232 232 232 232 232 231 231 231 226 221 221 222 220 216 212 208 201 204 251 230
321 308 254 231 225 223 221 244 255 267 272 265 263 265 258 253 247 243 241 240 238 236 231 233 234 234 234 231 230 230 226 222 220 220 216 213 209 205 199 203 236 222 241
329 323 307 281 257 242 240 252 292 296 279 274 268 263 264 255 254 247 243 240 238 232 231 232 236 235 235 233 231 232 228 223 221 219 214 211 205 200 199 225 229 229 241
293 298 289 289 270 270 271 273 296 287 278 278 272 267 266 262 259 253 245 240 239 232 233 233 236 238 237 234 230 228 223 220 217 215 212 208 201 199 213 237 228 227 246
293 290 289 283 283 284 283 279 287 274 272 273 269 266 261 258 257 252 247 242 240 237 235 235 235 237 235 234 230 226 222 219 214 211 208 200 196 204 229 231 234 235 246
276 278 282 281 286 287 286 290 285 280 279 271 266 263 261 257 256 252 247 243 240 238 233 234 235 238 238 234 229 225 220 218 215 209 202 196 201 208 233 253 256 233 246
277 280 280 283 280 283 288 289 289 281 272 270 268 266 263 259 258 256 251 244 240 240 234 236 237 239 240 239 231 224 220 217 213 210 204 199 207 217 257 286 243 239 249
277 280 284 289 289 280 278 283 285 284 282 278 272 265 261 259 257 255 252 246 241 241 235 237 238 241 242 239 231 223 220 218 215 212 208 206 211 238 292 274 235 243 250
279 281 278 284 286 290 289 290 288 286 283 282 279 274 267 261 257 255 253 247 241 239 237 237 236 238 239 239 232 222 217 218 216 211 208 210 218 248 275 267 248 244 259
282 285 287 290 292 291 289 287 286 285 284 283 283 276 269 264 260 257 254 250 244 240 240 241 237 237 238 235 230 220 216 216 212 210 213 219 231 259 273 276 259 263 270
294 293 293 295 295 294 295 295 291 286 283 279 275 273 270 264 259 255 251 247 243 238 238 238 238 238 236 231 227 215 216 218 217 217 222 227 249 257 273 278 262 268 268
301 300 299 297 296 294 294 294 291 288 284 280 274 268 263 256 250 244 244 242 239 237 237 236 235 233 232 230 220 204 214 220 225 230 226 245 250 266 276 275 266 265 266
303 300 298 296 294 293 292 291 290 288 284 276 266 255 248 245 239 235 230 230 231 231 232 233 236 236 227 215 202 200 210 220 228 227 241 243 258 263 278 267 261 262 262
292 293 293 293 291 290 290 287 283 280 274 263 247 224 207 210 209 206 207 216 221 223 227 229 224 217 206 200 197 204 214 221 224 233 235 248 257 269 268 262 259 258 261
283 283 289 288 286 285 282 270 249 197 165 161 170 165 148 148 157 166 185 187 198 216 233 225 226 217 212 212 207 209 215 223 229 236 245 254 258 263 258 262 264 262 260
275 276 276 276 277 272 245 200 167 150 143 137 139 138 131 137 139 138 147 167 180 187 172 199 233 241 237 231 225 223 226 231 238 248 251 257 263 261 259 264 263 262 264
Wind_Speed_850mb
52 47 53 63 67 69 74 77 78 78 78 79 79 78 81 75 77 84 75 76 78 69 73 69 65 65 58 70 59 49 41 44 50 49 40 36 34 32 30 26 22 18 14
54 53 52 60 68 73 76 79 83 81 80 81 78 75 77 77 76 81 77 73 82 78 76 78 70 72 68 78 68 62 53 51 58 55 43 28 29 36 34 30 26 21 17
60 51 56 65 69 71 75 80 83 85 82 80 77 73 76 80 78 79 79 80 84 83 81 79 77 74 77 76 78 62 60 59 63 66 31 21 20 37 38 34 30 27 24
47 46 52 60 71 76 76 80 81 83 84 83 82 84 86 82 79 78 78 82 83 83 82 82 77 72 75 78 65 66 63 63 70 73 63 36 30 23 21 38 37 34 28
37 36 39 50 62 61 68 72 76 81 84 85 84 87 87 82 79 78 78 82 84 82 83 77 81 83 96 82 92 80 72 69 72 78 75 56 37 28 20 24 41 41 35
16 23 29 38 44 47 52 60 70 75 80 84 86 91 87 83 81 81 83 82 85 84 86 84 85 91 99 98 83 72 74 72 77 76 76 73 55 43 31 25 31 34 34
16 17 21 24 27 31 38 49 58 68 74 80 83 87 86 80 82 82 82 82 88 89 85 85 78 77 79 75 72 72 74 79 80 77 78 65 58 48 42 37 33 29 29
34 36 31 28 27 30 32 36 43 53 63 70 77 82 82 82 81 80 80 76 84 83 82 84 82 82 78 81 74 75 79 81 82 79 73 65 55 49 42 43 36 29 25
37 41 32 38 40 35 32 30 33 38 46 55 63 71 77 81 86 84 81 79 76 77 84 85 84 83 85 80 77 80 83 80 82 79 70 63 56 49 43 39 34 28 21
24 31 28 30 34 29 24 24 26 29 34 42 50 58 66 74 80 80 82 81 77 76 82 77 81 86 86 82 83 84 83 79 80 77 69 62 55 50 44 36 31 22 12
20 12 23 35 30 24 21 22 25 25 28 34 39 47 59 67 75 80 84 78 78 76 75 73 81 84 83 84 86 85 80 80 80 76 68 61 56 50 44 36 26 16 15
19 16 14 21 22 24 23 23 22 25 31 34 37 43 51 60 69 79 82 78 79 78 79 76 80 82 84 86 87 85 82 82 82 76 69 63 58 51 44 33 19 18 19
21 21 18 21 26 28 28 28 30 36 39 43 43 44 48 56 61 70 77 79 81 80 83 80 84 83 85 88 87 83 84 84 80 76 71 67 61 54 43 23 22 21 21
33 43 46 52 43 39 43 49 57 51 48 51 57 56 55 56 59 65 73 78 80 80 83 82 82 82 83 89 87 85 85 82 80 76 71 66 60 52 32 24 28 25 23
67 63 57 54 59 65 67 62 66 62 62 61 68 64 66 63 63 66 73 78 76 78 78 81 83 82 84 89 87 85 85 86 83 77 70 66 61 46 27 31 31 26 34
67 73 68 60 68 71 73 72 62 63 67 70 67 66 69 70 69 70 74 76 75 78 80 82 82 80 84 89 89 88 90 89 84 80 73 68 60 44 30 35 31 32 38
67 73 70 64 61 66 73 79 74 67 71 70 69 69 73 74 73 72 71 73 77 75 79 80 81 80 84 89 92 92 91 90 85 79 78 72 59 35 28 38 35 46 42
77 77 70 69 57 50 58 59 57 58 60 60 63 65 71 75 74 74 71 72 77 74 78 80 80 77 80 86 91 92 88 85 82 79 76 69 54 29 37 45 45 50 47
75 62 61 63 57 50 43 45 46 50 54 55 56 57 60 65 69 72 71 71 75 76 76 81 80 78 79 84 91 90 87 85 81 77 72 67 53 40 57 49 54 58 60
47 46 42 43 50 58 62 61 58 58 57 56 55 53 52 55 60 62 65 66 68 71 74 77 79 78 79 82 89 83 83 84 78 73 71 69 59 66 62 55 54 53 55
53 50 50 45 42 43 46 48 50 50 50 48 46 43 42 42 43 46 51 54 58 63 69 70 70 70 68 72 68 69 78 78 76 74 76 68 67 69 63 55 51 53 47
45 48 49 47 46 45 45 45 47 46 42 39 36 34 32 31 31 34 39 42 48 52 56 56 56 57 56 54 58 66 69 71 72 73 73 69 66 71 59 55 53 51 54
49 51 53 51 47 44 43 44 42 38 34 29 26 22 20 21 22 26 28 33 37 40 45 46 43 39 42 49 57 60 64 67 71 73 67 68 69 62 58 49 48 51 51
52 48 48 48 46 41 39 34 29 23 20 17 14 12 12 13 15 18 19 23 28 30 33 32 31 38 44 54 60 61 60 63 69 68 74 80 70 63 57 51 51 49 53
49 41 46 44 42 36 31 23 14 9 9 9 9 11 14 16 16 14 13 16 17 17 18 20 23 30 39 48 54 59 63 66 70 75 76 68 65 64 59 55 54 50 51
45 39 37 37 33 27 20 18 18 16 17 19 15 16 20 22 24 23 20 16 11 10 12 10 11 17 25 33 43 55 59 66 71 68 63 64 66 64 62 60 57 55 55
Wind_Direction_850mb
250 243 233 240 236 234 233 232 233 235 232 232 232 233 237 239 235 236 238 230 228 230 233 238 240 240 242 219 219 219 227 229 212 197 187 188 192 198 199 197 195 194 192
252 242 232 232 240 238 237 235 236 236 234 234 235 235 240 243 240 240 241 234 226 226 234 235 238 237 234 223 218 214 215 224 219 203 188 188 202 209 209 207 204 204 208
253 245 234 239 240 238 239 240 239 238 236 235 235 235 238 242 242 240 237 233 228 228 231 233 234 240 243 229 225 220 231 232 214 210 193 183 209 211 216 215 212 213 219
255 249 239 241 249 247 243 242 239 239 239 237 235 238 243 245 248 246 241 235 230 229 231 229 231 235 226 230 239 232 237 239 223 209 205 204 199 178 191 220 219 220 223
260 251 244 235 246 250 245 243 240 238 237 237 237 239 242 244 246 245 243 236 231 231 229 227 228 232 231 232 239 230 228 236 226 223 215 208 209 203 205 203 215 219 223
261 248 242 240 243 244 242 240 240 240 238 238 238 239 242 241 242 242 242 236 230 231 227 225 231 235 233 236 234 230 233 234 225 223 224 222 222 223 209 213 221 214 222
266 254 256 250 246 244 243 241 239 238 238 238 239 240 240 240 243 245 244 239 231 232 223 225 224 225 227 229 238 236 230 230 226 226 226 225 226 236 225 226 206 193 221
274 270 258 247 240 244 245 244 242 240 240 240 242 242 240 240 240 242 246 243 237 234 228 226 229 232 235 231 233 233 235 230 225 226 226 226 233 234 230 226 218 191 208
274 272 261 246 246 243 241 243 247 247 246 246 246 247 243 241 242 243 244 246 238 235 228 229 231 228 230 232 235 235 235 230 226 225 224 229 233 227 225 220 215 216 199
296 261 247 235 240 237 235 239 246 252 255 256 255 254 250 246 242 244 241 241 237 234 231 230 229 231 230 232 232 232 233 230 224 221 224 226 222 220 215 211 206 205 254
312 280 236 243 234 227 228 240 247 255 262 266 265 258 252 249 244 241 241 241 238 238 231 232 232 232 232 232 231 231 231 226 221 221 222 220 216 212 208 201 204 251 230
321 308 254 231 225 223 221 244 255 267 272 265 263 265 258 253 247 243 241 240 238 236 231 233 234 234 234 231 230 230 226 222 220 220 216 213 209 205 199 203 236 222 241
329 323 307 281 257 242 240 252 292 296 279 274 268 263 264 255 254 247 243 240 238 232 231 232 236 235 235 233 231 232 228 223 221 219 214 211 205 200 199 225 229 229 241
293 298 289 289 270 270 271 273 296 287 278 278 272 267 266 262 259 253 245 240 239 232 233 233 236 238 237 234 230 228 223 220 217 215 212 208 201 199 213 237 228 227 246
293 290 289 283 283 284 283 279 287 274 272 273 269 266 261 258 257 252 247 242 240 237 235 235 235 237 235 234 230 226 222 219 214 211 208 200 196 204 229 231 234 235 246
276 278 282 281 286 287 286 290 285 280 279 271 266 263 261 257 256 252 247 243 240 238 233 234 235 238 238 234 229 225 220 218 215 209 202 196 201 208 233 253 256 233 246
277 280 280 283 280 283 288 289 289 281 272 270 268 266 263 259 258 256 251 244 240 240 234 236 237 239 240 239 231 224 220 217 213 210 204 199 207 217 257 286 243 239 249
277 280 284 289 289 280 278 283 285 284 282 278 272 265 261 259 257 255 252 246 241 241 235 237 238 241 242 239 231 223 220 218 215 212 208 206 211 238 292 274 235 243 250
279 281 278 284 286 290 289 290 288 286 283 282 279 274 267 261 257 255 253 247 241 239 237 237 236 238 239 239 232 222 217 218 216 211 208 210 218 248 275 267 248 244 259
282 285 287 290 292 291 289 287 286 285 284 283 283 276 269 264 260 257 254 250 244 240 240 241 237 237 238 235 230 220 216 216 212 210 213 219 231 259 273 276 259 263 270
294 293 293 295 295 294 295 295 291 286 283 279 275 273 270 264 259 255 251 247 243 238 238 238 238 238 236 231 227 215 216 218 217 217 222 227 249 257 273 278 262 268 268
301 300 299 297 296 294 294 294 291 288 284 280 274 268 263 256 250 244 244 242 239 237 237 236 235 233 232 230 220 204 214 220 225 230 226 245 250 266 276 275 266 265 266
303 300 298 296 294 293 292 291 290 288 284 276 266 255 248 245 239 235 230 230 231 231 232 233 236 236 227 215 202 200 210 220 228 227 241 243 258 263 278 267 261 262 262
292 293 293 293 291 290 290 287 283 280 274 263 247 224 207 210 209 206 207 216 221 223 227 229 224 217 206 200 197 204 214 221 224 233 235 248 257 269 268 262 259 258 261
283 283 289 288 286 285 282 270 249 197 165 161 170 165 148 148 157 166 185 187 198 216 233 225 226 217 212 212 207 209 215 223 229 236 245 254 258 263 258 262 264 262 260
275 276 276 276 277 272 245 200 167 150 143 137 139 138 131 137 139 138 147 167 180 187 172 199 233 241 237 231 225 223 226 231 238 248 251 257 263 261 259 264 263 262 264